* Astronomy

Members Login
Username 
 
Password 
    Remember Me  
Post Info TOPIC: Asteroid 2000 EB14


L

Posts: 131433
Date:
Asteroid 2000 EB14
Permalink  
 


Orbital elements:
2000 EB14 Earth MOID = 0.0307 AU
Epoch 2011 Feb. 8.0 TT = JDT 2455600.5 MPC
M 236.17747 (2000.0) P Q
n 1.16294819 Peri. 139.58665 +0.54072913 +0.83912252
a 0.8955623 Node 162.88289 -0.81423178 +0.53973250
e 0.4955555 Incl. 11.57115 -0.21127852 +0.06754422
P 0.85 H 23.1 G 0.15 U 5

MPEC 2011 - E12


The 63 - 140 metre wide asteroid 2000 EB14 will make a close pass (52.4 lunar distances, 0.1346 AU), travelling at 12.76 km/second, to the Earth-Moon system on the 11th March, 2011 @ 00:50 UT ±00:01.

See more

The Lunar Distance (LD), the distance between Earth and the Moon, equals 384,401 km, (or 0.00256 AU).


__________________
Page 1 of 1  sorted by
 
Quick Reply

Please log in to post quick replies.



Create your own FREE Forum
Report Abuse
Powered by ActiveBoard